| time (UTC) | temp F | wind direction | speed MPH | gust MPH | rain 1hr in | rain 24hr in | rain mn in | humidity % | barometer mb |
| 20260507011551 | 58 | 218 | 0.0 | 2.0 | 0.00 | 0.00 | 0.00 | 75 | 1020.8 |
| 20260507004554 | 58 | 233 | 0.0 | 2.0 | 0.00 | 0.00 | 0.00 | 75 | 1020.9 |
| 20260507003053 | 58 | 166 | 1.0 | 3.0 | 0.00 | 0.00 | 0.00 | 74 | 1021.0 |
| 20260507001558 | 58 | 190 | 0.0 | 5.0 | 0.00 | 0.00 | 0.00 | 74 | 1020.9 |
| 20260507000052 | 58 | 148 | 0.0 | 4.0 | 0.00 | 0.00 | 0.00 | 74 | 1021.0 |
| 20260506234551 | 58 | 148 | 1.0 | 4.0 | 0.00 | 0.00 | 0.00 | 72 | 1020.9 |
| 20260506233104 | 58 | 169 | 1.0 | 3.0 | 0.00 | 0.00 | 0.00 | 72 | 1020.9 |
| 20260506231553 | 58 | 160 | 0.0 | 4.0 | 0.00 | 0.00 | 0.00 | 73 | 1021.1 |
| 20260506230053 | 58 | 0 | 0.0 | 2.0 | 0.00 | 0.00 | 0.00 | 73 | 1021.1 |
| 20260506224554 | 57 | 275 | 0.0 | 3.0 | 0.00 | 0.00 | 0.00 | 74 | 1021.1 |
| 20260506223054 | 57 | 0 | 0.0 | 3.0 | 0.00 | 0.00 | 0.00 | 75 | 1021.2 |
| 20260506221558 | 57 | 0 | 0.0 | 3.0 | 0.00 | 0.00 | 0.00 | 74 | 1021.3 |
| 20260506220053 | 58 | 0 | 0.0 | 3.0 | 0.00 | 0.00 | 0.00 | 74 | 1021.3 |
| 20260506214553 | 57 | 204 | 0.0 | 2.0 | 0.00 | 0.00 | 0.00 | 74 | 1021.4 |
| 20260506213053 | 57 | 181 | 0.0 | 5.0 | 0.00 | 0.00 | 0.00 | 75 | 1021.3 |
| 20260506211608 | 57 | 217 | 0.0 | 4.0 | 0.00 | 0.00 | 0.00 | 76 | 1021.3 |
| 20260506210057 | 57 | 187 | 1.0 | 3.0 | 0.00 | 0.00 | 0.00 | 74 | 1021.3 |
| 20260506204558 | 57 | 193 | 0.0 | 2.0 | 0.00 | 0.00 | 0.00 | 77 | 1021.3 |
| 20260506203056 | 57 | 0 | 0.0 | 4.0 | 0.00 | 0.00 | 0.00 | 77 | 1021.2 |
| 20260506201553 | 57 | 200 | 0.0 | 2.0 | 0.00 | 0.00 | 0.00 | 78 | 1021.3 |
| 20260506200051 | 56 | 166 | 0.0 | 2.0 | 0.00 | 0.00 | 0.00 | 79 | 1021.2 |
| 20260506194555 | 56 | 214 | 0.0 | 3.0 | 0.00 | 0.00 | 0.00 | 80 | 1021.1 |
| 20260506193055 | 56 | 0 | 0.0 | 3.0 | 0.00 | 0.00 | 0.00 | 81 | 1021.0 |
| 20260506191553 | 56 | 125 | 0.0 | 3.0 | 0.00 | 0.00 | 0.00 | 82 | 1020.8 |
| 20260506190057 | 56 | 0 | 0.0 | 2.0 | 0.00 | 0.00 | 0.00 | 83 | 1020.9 |
| 20260506184607 | 56 | 170 | 0.0 | 3.0 | 0.00 | 0.00 | 0.00 | 83 | 1020.9 |
| 20260506183056 | 56 | 0 | 0.0 | 3.0 | 0.00 | 0.00 | 0.00 | 83 | 1020.9 |
| 20260506181553 | 56 | 176 | 0.0 | 4.0 | 0.00 | 0.00 | 0.00 | 83 | 1020.9 |
| 20260506174553 | 55 | 207 | 0.0 | 2.0 | 0.00 | 0.00 | 0.00 | 86 | 1020.5 |
| 20260506173107 | 55 | 0 | 0.0 | 1.0 | 0.00 | 0.00 | 0.00 | 86 | 1020.8 |
| 20260506171600 | 54 | 209 | 0.0 | 3.0 | 0.00 | 0.00 | 0.00 | 86 | 1020.9 |
| 20260506170100 | 54 | 181 | 0.0 | 3.0 | 0.00 | 0.00 | 0.00 | 86 | 1020.8 |
| 20260506164610 | 54 | 174 | 0.0 | 2.0 | 0.00 | 0.00 | 0.00 | 86 | 1020.6 |
| 20260506163102 | 54 | 0 | 0.0 | 1.0 | 0.00 | 0.00 | 0.00 | 85 | 1020.3 |
| 20260506161555 | 53 | 0 | 0.0 | 2.0 | 0.00 | 0.00 | 0.00 | 85 | 1020.1 |
| 20260506160107 | 53 | 169 | 0.0 | 3.0 | 0.00 | 0.00 | 0.00 | 85 | 1020.2 |
| 20260506154553 | 54 | 0 | 0.0 | 2.0 | 0.00 | 0.00 | 0.00 | 85 | 1020.2 |
| 20260506153055 | 54 | 0 | 0.0 | 2.0 | 0.00 | 0.00 | 0.00 | 85 | 1020.3 |
| 20260506151555 | 54 | 167 | 0.0 | 2.0 | 0.00 | 0.00 | 0.00 | 85 | 1020.2 |
| 20260506150128 | 54 | 0 | 0.0 | 1.0 | 0.00 | 0.00 | 0.00 | 85 | 1020.0 |
| 20260506144552 | 54 | 219 | 0.0 | 2.0 | 0.00 | 0.00 | 0.00 | 86 | 1020.1 |
| 20260506143050 | 54 | 0 | 0.0 | 1.0 | 0.00 | 0.00 | 0.00 | 86 | 1020.1 |
| 20260506141607 | 54 | 0 | 0.0 | 1.0 | 0.00 | 0.00 | 0.00 | 86 | 1019.8 |
| 20260506140053 | 54 | 168 | 0.0 | 2.0 | 0.00 | 0.00 | 0.00 | 86 | 1019.9 |
| 20260506134554 | 54 | 181 | 0.0 | 2.0 | 0.00 | 0.00 | 0.00 | 86 | 1019.8 |
| 20260506133106 | 54 | 0 | 0.0 | 1.0 | 0.00 | 0.00 | 0.00 | 86 | 1019.7 |
| 20260506131558 | 54 | 176 | 0.0 | 1.0 | 0.00 | 0.00 | 0.00 | 86 | 1019.6 |
| 20260506130055 | 54 | 176 | 0.0 | 2.0 | 0.00 | 0.00 | 0.00 | 86 | 1019.4 |
| 20260506124551 | 54 | 0 | 0.0 | 2.0 | 0.00 | 0.00 | 0.00 | 85 | 1019.2 |
| 20260506123056 | 54 | 0 | 0.0 | 2.0 | 0.00 | 0.00 | 0.00 | 85 | 1019.1 |
| 20260506121610 | 54 | 0 | 0.0 | 2.0 | 0.00 | 0.00 | 0.00 | 85 | 1019.1 |
| 20260506120118 | 54 | 206 | 0.0 | 2.0 | 0.00 | 0.00 | 0.00 | 84 | 1019.2 |
| 20260506114602 | 54 | 210 | 0.0 | 4.0 | 0.00 | 0.00 | 0.00 | 84 | 1018.9 |
| 20260506113056 | 54 | 300 | 0.0 | 4.0 | 0.00 | 0.00 | 0.00 | 84 | 1018.9 |
| 20260506111555 | 55 | 179 | 0.0 | 2.0 | 0.00 | 0.00 | 0.00 | 83 | 1018.8 |
| 20260506110055 | 55 | 165 | 0.0 | 3.0 | 0.00 | 0.00 | 0.00 | 83 | 1018.7 |
| 20260506104550 | 55 | 176 | 0.0 | 3.0 | 0.00 | 0.00 | 0.00 | 83 | 1018.7 |
| 20260506103053 | 55 | 198 | 0.0 | 4.0 | 0.00 | 0.00 | 0.00 | 84 | 1018.6 |
| 20260506101550 | 55 | 167 | 1.0 | 3.0 | 0.00 | 0.00 | 0.00 | 83 | 1018.5 |
| 20260506100054 | 55 | 169 | 0.0 | 5.0 | 0.00 | 0.00 | 0.00 | 84 | 1018.4 |
| 20260506094554 | 55 | 240 | 0.0 | 3.0 | 0.00 | 0.00 | 0.00 | 84 | 1018.1 |
| 20260506093054 | 55 | 181 | 1.0 | 3.0 | 0.00 | 0.00 | 0.00 | 84 | 1018.1 |
| 20260506091551 | 55 | 158 | 1.0 | 5.0 | 0.00 | 0.00 | 0.00 | 84 | 1017.9 |
| 20260506090050 | 54 | 0 | 0.0 | 2.0 | 0.00 | 0.00 | 0.00 | 84 | 1017.8 |
| 20260506084549 | 55 | 160 | 0.0 | 2.0 | 0.00 | 0.00 | 0.00 | 84 | 1017.6 |
| 20260506083053 | 55 | 181 | 0.0 | 2.0 | 0.00 | 0.00 | 0.00 | 84 | 1017.5 |
| 20260506081554 | 55 | 215 | 0.0 | 1.0 | 0.00 | 0.00 | 0.00 | 84 | 1017.4 |
| 20260506073059 | 55 | 0 | 0.0 | 1.0 | 0.00 | 0.00 | 0.00 | 85 | 1017.4 |
| 20260506071554 | 55 | 0 | 0.0 | 1.0 | 0.00 | 0.00 | 0.00 | 86 | 1017.3 |
| 20260506070115 | 54 | 0 | 0.0 | 0.0 | 0.00 | 0.00 | 0.00 | 86 | 1017.3 |
| 20260506061556 | 55 | 0 | 0.0 | 0.0 | 0.00 | 0.00 | 0.00 | 85 | 1016.9 |
| 20260506050114 | 58 | 0 | 0.0 | 0.0 | 0.00 | 0.00 | 0.00 | 81 | 1016.2 |
| 20260506044602 | 59 | 0 | 0.0 | 0.0 | 0.00 | 0.00 | 0.00 | 80 | 1016.2 |
| 20260506043051 | 59 | 0 | 0.0 | 0.0 | 0.00 | 0.00 | 0.00 | 79 | 1016.2 |
| 20260506041556 | 59 | 0 | 0.0 | 0.0 | 0.00 | 0.00 | 0.00 | 80 | 1016.2 |
| 20260506040051 | 59 | 0 | 0.0 | 0.0 | 0.00 | 0.00 | 0.00 | 79 | 1016.1 |
| 20260506034552 | 60 | 0 | 0.0 | 0.0 | 0.00 | 0.00 | 0.00 | 76 | 1015.8 |
| 20260506033052 | 62 | 0 | 0.0 | 0.0 | 0.00 | 0.00 | 0.00 | 73 | 1015.7 |
| 20260506031559 | 63 | 0 | 0.0 | 1.0 | 0.00 | 0.00 | 0.00 | 71 | 1015.5 |
| 20260506030113 | 64 | 0 | 0.0 | 1.0 | 0.00 | 0.00 | 0.00 | 69 | 1015.5 |
| 20260506024555 | 65 | 0 | 0.0 | 2.0 | 0.00 | 0.00 | 0.00 | 66 | 1015.5 |
| 20260506023056 | 66 | 186 | 0.0 | 4.0 | 0.00 | 0.00 | 0.00 | 63 | 1015.4 |
| 20260506021554 | 69 | 0 | 0.0 | 3.0 | 0.00 | 0.00 | 0.00 | 59 | 1015.4 |
| 20260506020051 | 70 | 149 | 0.0 | 3.0 | 0.00 | 0.00 | 0.00 | 56 | 1015.4 |
| 20260506014600 | 71 | 176 | 0.0 | 3.0 | 0.00 | 0.00 | 0.00 | 55 | 1015.4 |
| 20260506013052 | 71 | 177 | 0.0 | 4.0 | 0.00 | 0.00 | 0.00 | 55 | 1015.4 |